GW0774 Weather Reports


time (UTC)temp
F
wind
direction
speed
knots
gust
knots
rain 1hr
in
rain 24hr
in
rain mn
in
humidity
%
barometer
mb
20260903035538 60 244 8.7 16.5 0.00 0.00 0.00 76 1013.2
20260903035039 60 267 9.6 16.5 0.00 0.00 0.00 77 1013.2
20260903034553 60 262 10.4 15.6 0.00 0.00 0.00 76 1013.1
20260903034038 60 250 10.4 15.6 0.00 0.00 0.00 76 1013.1
20260903033543 60 251 10.4 16.5 0.00 0.00 0.00 76 1013.2
20260903033107 60 263 9.6 16.5 0.00 0.00 0.00 77 1013.3
20260903032539 60 237 9.6 16.5 0.00 0.00 0.00 77 1013.4
20260903032038 60 259 11.3 16.5 0.00 0.00 0.00 78 1013.3
20260903031558 60 249 9.6 16.5 0.00 0.00 0.00 78 1013.4
20260903031039 60 260 12.2 16.5 0.00 0.00 0.00 78 1013.4
20260903030539 60 238 11.3 15.6 0.00 0.00 0.00 78 1013.4
20260903030057 60 227 10.4 15.6 0.00 0.00 0.00 78 1013.4
20260903025538 60 259 11.3 19.1 0.00 0.00 0.00 78 1013.3
20260903025038 60 246 10.4 19.1 0.00 0.00 0.00 79 1013.6
20260903024550 60 256 10.4 15.6 0.00 0.00 0.00 80 1013.6
20260903024038 60 242 9.6 14.8 0.00 0.00 0.00 80 1013.5
20260903023540 60 234 10.4 14.8 0.00 0.00 0.00 81 1013.7
20260903023057 61 259 9.6 14.8 0.00 0.00 0.00 81 1013.7
20260903022539 61 242 9.6 14.8 0.00 0.00 0.00 81 1013.7
20260903022039 61 252 9.6 15.6 0.00 0.00 0.00 81 1013.7
20260903021607 60 248 11.3 16.5 0.00 0.00 0.00 80 1013.8
20260903021038 60 262 10.4 17.4 0.00 0.00 0.00 80 1013.8
20260903020539 60 256 11.3 18.2 0.00 0.00 0.00 81 1013.9
20260903020058 60 253 12.2 18.2 0.00 0.00 0.00 79 1013.8
20260903015537 60 299 11.3 18.2 0.00 0.00 0.00 79 1013.9
20260903015038 60 240 11.3 22.6 0.00 0.00 0.00 80 1014.0
20260903014551 60 252 12.2 22.6 0.00 0.00 0.00 80 1014.0
20260903014039 60 241 11.3 19.1 0.00 0.00 0.00 80 1014.1
20260903013539 60 261 10.4 19.1 0.00 0.00 0.00 79 1014.0
20260903013105 61 234 9.6 17.4 0.00 0.00 0.00 78 1014.2
20260903012539 61 257 10.4 17.4 0.00 0.00 0.00 79 1014.3
20260903012039 61 221 9.6 16.5 0.00 0.00 0.00 77 1014.4
20260903011606 60 250 8.7 19.1 0.00 0.00 0.00 78 1014.4
20260903011039 60 238 12.2 19.1 0.00 0.00 0.00 77 1014.4
20260903010539 60 310 7.8 18.2 0.00 0.00 0.00 77 1014.5
20260903010110 60 241 9.6 16.5 0.00 0.00 0.00 77 1014.7
20260903005541 60 230 9.6 16.5 0.00 0.00 0.00 78 1014.9
20260903005039 60 246 9.6 17.4 0.00 0.00 0.00 77 1014.8
20260903004557 60 253 9.6 17.4 0.00 0.00 0.00 79 1015.0
20260903004039 60 258 9.6 19.1 0.00 0.00 0.00 79 1015.0
20260903003539 60 237 8.7 19.1 0.00 0.00 0.00 79 1015.1
20260903003114 60 259 8.7 17.4 0.00 0.00 0.00 79 1015.0
20260903002539 59 250 8.7 17.4 0.00 0.00 0.00 79 1015.1
20260903002039 60 260 10.4 17.4 0.00 0.00 0.00 80 1015.0
20260903001602 60 265 8.7 18.2 0.00 0.00 0.00 79 1015.2
20260903001038 60 282 7.8 20.0 0.00 0.00 0.00 81 1015.2
20260903000538 60 277 13.9 20.0 0.00 0.00 0.00 78 1015.2
20260903000104 60 286 8.7 18.2 0.00 0.00 0.00 79 1015.2
20260902235538 61 311 7.8 20.9 0.00 0.00 0.00 82 1015.2
20260902235040 60 234 9.6 20.9 0.00 0.00 0.00 80 1015.3
20260902234555 60 311 12.2 20.9 0.00 0.00 0.00 81 1015.3
20260902234038 60 300 10.4 19.1 0.00 0.00 0.00 81 1015.4
20260902233539 59 278 11.3 19.1 0.00 0.00 0.00 82 1015.3
20260902233059 59 259 9.6 15.6 0.00 0.00 0.00 81 1015.4
20260902232540 60 239 8.7 18.2 0.00 0.00 0.00 82 1015.5
20260902232039 60 288 9.6 18.2 0.00 0.00 0.00 82 1015.3
20260902231559 60 241 8.7 16.5 0.00 0.00 0.00 82 1015.3
20260902231043 59 273 7.0 19.1 0.00 0.00 0.00 82 1015.3
20260902230544 60 284 11.3 19.1 0.00 0.00 0.00 82 1015.4
20260902230058 59 293 9.6 18.2 0.00 0.00 0.00 84 1015.7
20260902225540 59 266 11.3 18.2 0.00 0.00 0.00 81 1015.8
20260902225039 59 279 9.6 14.8 0.00 0.00 0.00 83 1015.7
20260902224557 59 290 10.4 20.9 0.00 0.00 0.00 83 1015.6
20260902224039 59 289 12.2 20.9 0.00 0.00 0.00 83 1015.7
20260902223541 59 313 10.4 18.2 0.00 0.00 0.00 82 1015.7
20260902223055 59 254 10.4 20.0 0.00 0.00 0.00 82 1015.7
20260902222541 59 270 13.0 20.0 0.00 0.00 0.00 82 1015.7
20260902222043 59 241 9.6 20.9 0.00 0.00 0.00 83 1015.7
20260902221617 58 279 11.3 21.7 0.00 0.00 0.00 84 1015.6
20260902221040 58 271 13.0 21.7 0.00 0.00 0.00 83 1015.6
20260902220540 58 246 11.3 17.4 0.00 0.00 0.00 83 1015.6
20260902220058 58 304 11.3 17.4 0.00 0.00 0.00 84 1015.8
20260902215537 58 276 11.3 18.2 0.00 0.00 0.00 84 1015.8
20260902215043 58 250 9.6 18.2 0.00 0.00 0.00 84 1015.6
20260902214557 57 290 9.6 18.2 0.00 0.00 0.00 85 1015.5
20260902214039 57 271 10.4 17.4 0.00 0.00 0.00 85 1015.6
20260902213535 56 286 10.4 17.4 0.00 0.00 0.00 85 1015.6
20260902213053 56 276 12.2 17.4 0.00 0.00 0.00 85 1015.7
20260902212537 56 269 8.7 16.5 0.00 0.00 0.00 85 1015.7
20260902212035 56 288 9.6 16.5 0.00 0.00 0.00 85 1015.8
20260902211612 56 287 7.8 13.0 0.00 0.00 0.00 85 1015.8
20260902211037 56 270 7.8 13.0 0.00 0.00 0.00 85 1015.8
20260902210537 56 279 7.0 13.0 0.00 0.00 0.00 85 1015.8
20260902210100 55 271 6.1 12.2 0.00 0.00 0.00 85 1015.8
20260902205539 55 274 6.1 12.2 0.00 0.00 0.00 86 1015.9
20260902205036 55 283 7.0 13.0 0.00 0.00 0.00 85 1015.7
20260902204555 55 260 7.0 13.0 0.00 0.00 0.00 85 1015.7
20260902204039 55 275 6.1 14.8 0.00 0.00 0.00 85 1015.8
20260902203536 54 273 6.1 14.8 0.00 0.00 0.00 85 1015.8
20260902203051 54 269 7.0 12.2 0.00 0.00 0.00 85 1015.7
20260902202536 54 291 7.0 12.2 0.00 0.00 0.00 86 1015.7
20260902202037 53 265 6.1 9.6 0.00 0.00 0.00 86 1015.7
20260902201609 53 290 6.1 9.6 0.00 0.00 0.00 86 1015.6
20260902201035 53 281 5.2 8.7 0.00 0.00 0.00 86 1015.7
20260902200536 53 257 5.2 8.7 0.00 0.00 0.00 86 1015.6
20260902200104 53 277 3.5 7.8 0.00 0.00 0.00 86 1015.8
20260902195539 53 265 3.5 9.6 0.00 0.00 0.00 86 1015.7
20260902195036 53 269 3.5 9.6 0.00 0.00 0.00 86 1015.6
20260902194556 53 260 4.3 9.6 0.00 0.00 0.00 87 1015.6
20260902194038 53 266 1.7 5.2 0.00 0.00 0.00 87 1015.5
20260902193539 53 249 1.7 5.2 0.00 0.00 0.00 87 1015.6
20260902193051 53 244 1.7 5.2 0.00 0.00 0.00 87 1015.5
20260902192538 53 257 0.9 7.8 0.00 0.00 0.00 87 1015.5
20260902192040 53 290 2.6 7.8 0.00 0.00 0.00 87 1015.4
20260902191549 53 273 1.7 8.7 0.00 0.00 0.00 87 1015.3
20260902191037 53 300 1.7 12.2 0.00 0.00 0.00 87 1015.2
20260902190535 53 258 3.5 12.2 0.00 0.00 0.00 87 1015.2
20260902190057 53 46 7.0 12.2 0.00 0.00 0.00 87 1015.0
20260902185536 53 327 7.8 14.8 0.00 0.00 0.00 87 1014.9
20260902185038 53 304 8.7 14.8 0.00 0.00 0.00 87 1014.7
20260902184557 53 273 7.8 13.0 0.00 0.00 0.00 87 1014.8
20260902184036 53 263 7.8 13.0 0.00 0.00 0.00 87 1014.9
20260902183536 53 290 7.0 12.2 0.00 0.00 0.00 87 1014.9
20260902183057 53 282 5.2 13.0 0.00 0.00 0.00 87 1014.8
20260902182535 53 262 7.0 13.0 0.00 0.00 0.00 88 1014.8
20260902182103 53 280 8.7 12.2 0.00 0.00 0.00 88 1014.8
20260902181614 53 277 7.0 10.4 0.00 0.00 0.00 89 1014.8
20260902181035 53 277 7.0 11.3 0.00 0.00 0.00 89 1014.7
20260902180536 54 269 7.8 12.2 0.00 0.00 0.00 89 1014.9
20260902175538 54 263 6.1 13.9 0.00 0.00 0.00 90 1015.0
20260902175044 54 279 8.7 13.9 0.00 0.00 0.00 90 1014.9
20260902174554 54 290 8.7 13.9 0.00 0.00 0.00 90 1015.0
20260902174036 54 273 7.8 13.9 0.00 0.00 0.00 90 1014.9
20260902173536 55 269 8.7 16.5 0.00 0.00 0.00 90 1015.0
20260902173101 55 264 8.7 16.5 0.00 0.00 0.00 90 1015.0
20260902172541 55 272 8.7 14.8 0.00 0.00 0.00 90 1015.0
20260902172035 55 261 8.7 14.8 0.00 0.00 0.00 90 1015.0
20260902171609 55 280 7.8 13.9 0.00 0.00 0.00 90 1014.9
20260902171036 55 265 7.8 13.9 0.00 0.00 0.00 90 1014.9
20260902170536 55 287 9.6 14.8 0.00 0.00 0.00 90 1015.1
20260902170051 54 271 8.7 14.8 0.00 0.00 0.00 90 1015.1
20260902165540 54 277 8.7 14.8 0.00 0.00 0.00 90 1015.0
20260902165036 54 265 8.7 13.0 0.00 0.00 0.00 90 1014.7
20260902164557 54 277 7.8 13.9 0.00 0.00 0.00 89 1014.9
20260902164040 54 273 8.7 13.9 0.00 0.00 0.00 89 1014.7
20260902163538 54 299 8.7 13.9 0.00 0.00 0.00 89 1014.7
20260902163057 54 288 7.8 13.0 0.00 0.00 0.00 89 1014.9
20260902162537 54 277 6.1 14.8 0.00 0.00 0.00 89 1015.0
20260902162036 54 300 6.1 14.8 0.00 0.00 0.00 89 1015.0
20260902161600 54 271 8.7 14.8 0.00 0.00 0.00 89 1014.7
20260902161042 55 273 7.0 13.9 0.00 0.00 0.00 89 1014.6
20260902160543 55 300 8.7 17.4 0.00 0.00 0.00 90 1014.5
20260902160049 55 299 10.4 17.4 0.00 0.00 0.00 90 1014.4
20260902155539 55 288 10.4 16.5 0.00 0.00 0.00 89 1014.3
20260902155036 55 271 10.4 16.5 0.00 0.00 0.00 89 1014.3
20260902154611 55 266 9.6 14.8 0.00 0.00 0.00 89 1014.2
20260902154035 55 263 7.8 16.5 0.00 0.00 0.00 89 1014.2
20260902153539 55 292 9.6 16.5 0.00 0.00 0.00 89 1014.3
20260902153059 55 250 9.6 13.9 0.00 0.00 0.00 89 1014.3
20260902152539 55 265 8.7 13.0 0.00 0.00 0.00 89 1014.2
20260902152039 55 265 7.0 13.9 0.00 0.00 0.00 89 1014.3
20260902151555 55 263 7.0 13.9 0.00 0.00 0.00 89 1014.3
20260902151036 55 286 7.8 13.9 0.00 0.00 0.00 89 1014.4
20260902150539 55 236 7.0 13.0 0.00 0.00 0.00 89 1014.3
20260902150051 55 248 7.0 13.9 0.00 0.00 0.00 89 1014.3
20260902145539 55 259 6.1 17.4 0.00 0.00 0.00 89 1014.3
20260902145035 55 255 9.6 17.4 0.00 0.00 0.00 89 1014.3
20260902144558 55 305 12.2 17.4 0.00 0.00 0.00 89 1014.2
20260902144036 55 292 11.3 17.4 0.00 0.00 0.00 89 1014.2
20260902143539 55 273 10.4 17.4 0.00 0.00 0.00 89 1014.2
20260902143058 55 269 11.3 17.4 0.00 0.00 0.00 89 1014.3
20260902142536 55 269 9.6 14.8 0.00 0.00 0.00 89 1014.4
20260902142036 55 263 9.6 13.9 0.00 0.00 0.00 89 1014.6
20260902141550 55 261 8.7 12.2 0.00 0.00 0.00 89 1014.7
20260902141038 55 249 6.1 14.8 0.00 0.00 0.00 89 1014.7
20260902140540 55 279 7.0 14.8 0.00 0.00 0.00 89 1014.8
20260902140048 55 279 8.7 14.8 0.00 0.00 0.00 89 1014.6
20260902135535 54 279 8.7 15.6 0.00 0.00 0.00 89 1014.5
20260902135036 54 291 8.7 16.5 0.00 0.00 0.00 89 1014.5
20260902134547 54 289 10.4 18.2 0.00 0.00 0.00 89 1014.5
20260902134038 54 283 10.4 20.0 0.00 0.00 0.00 89 1014.3
20260902133536 54 283 12.2 20.0 0.00 0.00 0.00 89 1014.4
20260902133102 54 288 11.3 20.9 0.00 0.00 0.00 89 1014.3
20260902132536 54 309 11.3 20.9 0.00 0.00 0.00 89 1014.1
20260902132036 54 270 12.2 20.9 0.00 0.00 0.00 89 1014.0
20260902131552 54 279 7.0 13.9 0.00 0.00 0.00 89 1014.2
20260902131044 54 259 7.0 16.5 0.00 0.00 0.00 89 1014.3
20260902130541 54 277 9.6 18.2 0.00 0.00 0.00 90 1014.0
20260902130058 54 270 8.7 18.2 0.00 0.00 0.00 90 1013.8
20260902125540 54 279 9.6 16.5 0.00 0.00 0.00 90 1013.6
20260902125039 54 299 10.4 16.5 0.00 0.00 0.00 90 1013.6
20260902124605 54 241 8.7 15.6 0.00 0.00 0.00 90 1013.7
20260902124038 54 278 8.7 16.5 0.00 0.00 0.00 90 1013.7
20260902123538 54 262 8.7 16.5 0.00 0.00 0.00 90 1013.7
20260902123053 54 273 7.8 13.0 0.00 0.00 0.00 90 1013.8
20260902122539 54 264 7.8 13.0 0.00 0.00 0.00 90 1014.0
20260902122039 54 268 7.0 12.2 0.00 0.00 0.00 91 1014.0
20260902121550 54 240 5.2 11.3 0.00 0.00 0.00 91 1014.1
20260902121039 54 274 5.2 11.3 0.00 0.00 0.00 91 1014.1
20260902120539 54 293 6.1 11.3 0.00 0.00 0.00 90 1014.3
20260902120059 54 295 6.1 12.2 0.00 0.00 0.00 90 1014.3
20260902115538 54 315 7.0 13.0 0.00 0.00 0.00 90 1014.3
20260902115040 54 271 7.0 13.0 0.00 0.00 0.00 90 1014.4
20260902114557 54 268 7.0 13.9 0.00 0.00 0.00 90 1014.4
20260902114038 54 273 7.8 14.8 0.00 0.00 0.00 90 1014.3
20260902113538 54 284 9.6 22.6 0.00 0.00 0.00 90 1014.2
20260902113055 54 252 9.6 22.6 0.00 0.00 0.00 90 1014.2
20260902112541 54 339 13.9 22.6 0.00 0.00 0.00 90 1014.1
20260902112037 54 273 7.8 16.5 0.00 0.00 0.00 90 1013.9
20260902111559 54 273 8.7 14.8 0.00 0.00 0.00 90 1014.1
20260902111040 54 286 7.8 17.4 0.00 0.00 0.00 89 1014.1
20260902110540 55 290 9.6 17.4 0.00 0.00 0.00 89 1014.2
20260902110046 55 275 8.7 17.4 0.00 0.00 0.00 89 1014.1
20260902105538 55 272 7.8 15.6 0.00 0.00 0.00 89 1014.3
20260902105043 55 272 7.8 13.0 0.00 0.00 0.00 89 1014.4
20260902104557 55 308 8.7 13.0 0.00 0.00 0.00 89 1014.4
20260902104038 55 280 7.0 13.0 0.00 0.00 0.00 90 1014.4
20260902103541 55 276 7.0 11.3 0.00 0.00 0.00 90 1014.4
20260902103100 55 291 6.1 11.3 0.00 0.00 0.00 90 1014.5
20260902102539 55 274 6.1 12.2 0.00 0.00 0.00 90 1014.6
20260902102040 55 267 7.0 12.2 0.00 0.00 0.00 91 1014.9
20260902101556 54 269 6.1 12.2 0.00 0.00 0.00 91 1015.0
20260902101039 54 308 5.2 9.6 0.00 0.00 0.00 91 1015.0
20260902100539 54 281 3.5 9.6 0.00 0.00 0.00 91 1015.0
20260902100048 54 290 2.6 6.1 0.00 0.00 0.00 91 1015.0
20260902095539 54 261 2.6 7.0 0.00 0.00 0.00 90 1014.8
20260902095038 54 270 2.6 7.0 0.00 0.00 0.00 90 1014.9
20260902094557 54 271 4.3 9.6 0.00 0.00 0.00 90 1014.8
20260902094036 54 296 3.5 9.6 0.00 0.00 0.00 90 1014.7
20260902093536 54 303 4.3 9.6 0.00 0.00 0.00 91 1015.1
20260902093125 54 263 2.6 7.0 0.00 0.00 0.00 91 1015.1
20260902092539 54 270 2.6 7.0 0.00 0.00 0.00 91 1015.1
20260902092041 54 252 3.5 7.8 0.00 0.00 0.00 91 1015.1
20260902091600 54 53 2.6 7.8 0.00 0.00 0.00 91 1015.0
20260902091040 54 264 2.6 7.0 0.00 0.00 0.00 91 1014.8
20260902090539 53 281 1.7 3.5 0.00 0.00 0.00 91 1014.7
20260902090101 54 290 0.9 3.5 0.00 0.00 0.00 91 1015.0
20260902085538 54 277 1.7 5.2 0.00 0.00 0.00 90 1015.1
20260902085038 54 273 2.6 5.2 0.00 0.00 0.00 90 1015.3
20260902084559 54 273 1.7 5.2 0.00 0.00 0.00 90 1015.1
20260902084039 54 254 1.7 7.8 0.00 0.00 0.00 90 1015.1
20260902083535 54 260 1.7 7.8 0.00 0.00 0.00 89 1015.0
20260902083056 54 279 2.6 7.8 0.00 0.00 0.00 89 1015.1
20260902082535 54 277 3.5 7.8 0.00 0.00 0.00 89 1015.2
20260902082038 55 261 4.3 7.8 0.00 0.00 0.00 88 1015.2
20260902081610 55 268 1.7 15.6 0.00 0.00 0.00 88 1015.1
20260902081039 55 272 7.0 16.5 0.00 0.00 0.00 87 1015.1
20260902080539 55 298 11.3 16.5 0.00 0.00 0.00 87 1015.0
20260902080049 55 254 9.6 16.5 0.00 0.00 0.00 88 1015.0
20260902075538 55 302 9.6 16.5 0.00 0.00 0.00 88 1014.8
20260902075039 55 330 7.8 13.9 0.00 0.00 0.00 87 1014.8
20260902074559 55 288 7.8 13.9 0.00 0.00 0.00 87 1014.8
20260902074039 55 277 6.1 12.2 0.00 0.00 0.00 87 1014.7
20260902073538 55 279 6.1 12.2 0.00 0.00 0.00 87 1014.9
20260902073055 55 296 7.0 12.2 0.00 0.00 0.00 87 1014.8
20260902072539 55 275 8.7 13.9 0.00 0.00 0.00 86 1014.9
20260902072035 55 313 7.8 13.9 0.00 0.00 0.00 86 1015.0
20260902071601 55 294 7.8 13.9 0.00 0.00 0.00 86 1014.9
20260902071038 55 298 7.0 13.9 0.00 0.00 0.00 86 1015.0
20260902070538 55 267 7.8 14.8 0.00 0.00 0.00 86 1015.0
20260902070051 55 268 5.2 14.8 0.00 0.00 0.00 86 1015.0
20260902065539 55 282 7.0 14.8 0.00 0.00 0.00 86 1015.0
20260902065039 55 257 7.8 14.8 0.00 0.00 0.00 86 1014.8
20260902064558 55 280 8.7 18.2 0.00 0.00 0.00 86 1014.8
20260902064039 55 273 9.6 18.2 0.00 0.00 0.00 87 1014.8
20260902063538 55 269 10.4 15.6 0.00 0.00 0.00 87 1014.9
20260902063058 55 290 7.8 14.8 0.00 0.00 0.00 88 1014.8
20260902062541 55 263 10.4 18.2 0.00 0.00 0.00 88 1014.7
20260902062038 55 284 11.3 18.2 0.00 0.00 0.00 88 1014.5
20260902061554 55 296 11.3 23.5 0.00 0.00 0.00 88 1014.5
20260902061038 55 247 13.0 23.5 0.00 0.00 0.00 88 1014.3
20260902060537 55 293 10.4 20.9 0.00 0.00 0.00 88 1014.0
20260902060056 55 269 11.3 20.0 0.00 0.00 0.00 87 1014.0
20260902055538 55 317 7.8 16.5 0.00 0.00 0.00 87 1014.0
20260902055039 55 236 7.8 16.5 0.00 0.00 0.00 87 1014.2
20260902054559 55 260 7.8 20.9 0.00 0.00 0.00 87 1014.1
20260902054035 55 240 8.7 20.9 0.00 0.00 0.00 86 1014.2
20260902053538 55 300 7.8 20.0 0.00 0.00 0.00 86 1014.1
20260902053057 55 271 10.4 21.7 0.00 0.00 0.00 86 1014.0
20260902052543 56 277 12.2 22.6 0.00 0.00 0.00 86 1014.0
20260902052039 56 292 13.0 22.6 0.00 0.00 0.00 85 1014.0
20260902051554 56 250 11.3 22.6 0.00 0.00 0.00 84 1013.8
20260902051039 56 303 12.2 28.7 0.00 0.00 0.00 84 1013.8
20260902050538 56 234 13.0 28.7 0.00 0.00 0.00 84 1013.6
20260902050112 56 288 14.8 23.5 0.00 0.00 0.00 83 1013.5
20260902045538 56 265 12.2 22.6 0.00 0.00 0.00 82 1013.6
20260902045038 56 298 9.6 22.6 0.00 0.00 0.00 82 1013.7
20260902044609 56 336 11.3 20.0 0.00 0.00 0.00 82 1013.6
20260902044041 56 252 11.3 19.1 0.00 0.00 0.00 82 1013.8
20260902043540 56 246 10.4 20.0 0.00 0.00 0.00 81 1013.6
20260902043056 57 286 7.8 20.9 0.00 0.00 0.00 81 1013.8
20260902042540 57 314 10.4 20.9 0.00 0.00 0.00 81 1013.8
20260902042041 57 314 7.8 22.6 0.00 0.00 0.00 82 1014.0
20260902041552 57 294 11.3 22.6 0.00 0.00 0.00 83 1014.3
20260902041040 57 309 13.0 21.7 0.00 0.00 0.00 82 1014.2
20260902040539 57 264 10.4 19.1 0.00 0.00 0.00 82 1014.2
20260902040054 57 275 8.7 19.1 0.00 0.00 0.00 81 1014.3